LPE2198 SPJC-SPQU

Flight info

Callsign LPE2198
Flight time 1h 2m
Altitude 37000
Route AKSOL UT222 ASUPA
Aircraft A320/M-SDE3FGHIRWY/LB1

Departure

Time 2026-05-08 04:42
Airport Jorge Chávez International Airport (SPJC)

Arrival

Time 2026-05-08 05:45
Airport Rodríguez Ballón International Airport (SPQU)
Time Latitude Longitude Altitude Speed Heading
2026-05-08 03:59 -12.02759 -77.12023 70 ft 0 kts 244°
2026-05-08 04:02 -12.02759 -77.12022 70 ft 0 kts 244°
2026-05-08 04:24 -12.02755 -77.12014 72 ft 3 kts 246°
2026-05-08 04:24 -12.02748 -77.11995 68 ft 3 kts 256°
2026-05-08 04:25 -12.02745 -77.11975 69 ft 3 kts 280°
2026-05-08 04:25 -12.02751 -77.11959 77 ft 2 kts 327°
2026-05-08 04:25 -12.02754 -77.11957 77 ft 2 kts 334°
2026-05-08 04:28 -12.02734 -77.11966 73 ft 7 kts 335°
2026-05-08 04:29 -12.02692 -77.11987 72 ft 7 kts 334°
2026-05-08 04:29 -12.02650 -77.12006 71 ft 7 kts 335°
2026-05-08 04:29 -12.02609 -77.12026 71 ft 6 kts 335°
2026-05-08 04:29 -12.02575 -77.12045 72 ft 5 kts 321°
2026-05-08 04:30 -12.02567 -77.12095 73 ft 13 kts 253°
2026-05-08 04:30 -12.02589 -77.12167 66 ft 10 kts 280°
2026-05-08 04:30 -12.02521 -77.12210 64 ft 13 kts 335°
2026-05-08 04:30 -12.02434 -77.12252 57 ft 16 kts 332°
2026-05-08 04:31 -12.02355 -77.12291 54 ft 14 kts 335°
2026-05-08 04:31 -12.02276 -77.12328 52 ft 13 kts 335°
2026-05-08 04:31 -12.02205 -77.12358 52 ft 11 kts
2026-05-08 04:31 -12.02173 -77.12323 54 ft 5 kts 65°
2026-05-08 04:32 -12.02156 -77.12286 53 ft 7 kts 65°
2026-05-08 04:32 -12.02134 -77.12240 52 ft 8 kts 64°
2026-05-08 04:32 -12.02121 -77.12211 55 ft 5 kts 64°
2026-05-08 04:32 -12.02108 -77.12184 59 ft 5 kts 64°
2026-05-08 04:33 -12.02085 -77.12136 61 ft 6 kts 64°
2026-05-08 04:33 -12.02059 -77.12082 60 ft 9 kts 64°
2026-05-08 04:33 -12.02037 -77.12036 57 ft 7 kts 64°
2026-05-08 04:33 -12.02008 -77.11977 61 ft 12 kts 64°
2026-05-08 04:34 -12.01978 -77.11912 66 ft 9 kts 64°
2026-05-08 04:34 -12.01952 -77.11857 62 ft 8 kts 64°
2026-05-08 04:34 -12.01938 -77.11834 62 ft 0 kts 48°
2026-05-08 04:34 -12.01899 -77.11832 64 ft 7 kts 338°
2026-05-08 04:35 -12.01851 -77.11845 62 ft 7 kts
2026-05-08 04:35 -12.01822 -77.11814 65 ft 6 kts 46°
2026-05-08 04:35 -12.01762 -77.11816 64 ft 10 kts 333°
2026-05-08 04:35 -12.01700 -77.11848 61 ft 10 kts 333°
2026-05-08 04:36 -12.01642 -77.11879 61 ft 9 kts 333°
2026-05-08 04:36 -12.01589 -77.11906 59 ft 8 kts 333°
2026-05-08 04:36 -12.01541 -77.11932 60 ft 8 kts 333°
2026-05-08 04:36 -12.01493 -77.11955 62 ft 8 kts 335°
2026-05-08 04:37 -12.01445 -77.11978 60 ft 8 kts 335°
2026-05-08 04:37 -12.01395 -77.12002 60 ft 8 kts 334°
2026-05-08 04:37 -12.01332 -77.12033 55 ft 11 kts 335°
2026-05-08 04:37 -12.01274 -77.12078 56 ft 10 kts 310°
2026-05-08 04:38 -12.01228 -77.12138 54 ft 11 kts 310°
2026-05-08 04:38 -12.01164 -77.12183 53 ft 11 kts 333°
2026-05-08 04:38 -12.01098 -77.12216 53 ft 11 kts 334°
2026-05-08 04:38 -12.01032 -77.12248 52 ft 10 kts 335°
2026-05-08 04:39 -12.00989 -77.12268 52 ft 10 kts 335°
2026-05-08 04:39 -12.00930 -77.12296 51 ft 6 kts 335°
2026-05-08 04:39 -12.00896 -77.12311 50 ft 5 kts 335°
2026-05-08 04:39 -12.00868 -77.12312 51 ft 4 kts 20°
2026-05-08 04:40 -12.00847 -77.12282 52 ft 5 kts 59°
2026-05-08 04:40 -12.00828 -77.12244 52 ft 6 kts 63°
2026-05-08 04:40 -12.00810 -77.12207 52 ft 6 kts 63°
2026-05-08 04:40 -12.00792 -77.12171 50 ft 7 kts 63°
2026-05-08 04:41 -12.00784 -77.12121 52 ft 5 kts 112°
2026-05-08 04:41 -12.00811 -77.12111 52 ft 3 kts 156°
2026-05-08 04:41 -12.00814 -77.12110 52 ft 0 kts 156°
2026-05-08 04:41 -12.00828 -77.12103 52 ft 13 kts 155°
2026-05-08 04:42 -12.01144 -77.11948 58 ft 84 kts 154°
2026-05-08 04:42 -12.01852 -77.11599 64 ft 139 kts 154°
2026-05-08 04:42 -12.02825 -77.11123 336 ft 160 kts 155°
2026-05-08 04:42 -12.03825 -77.10636 1020 ft 159 kts 155°
2026-05-08 04:43 -12.04848 -77.10149 1513 ft 172 kts 155°
2026-05-08 04:43 -12.05990 -77.09595 1854 ft 193 kts 154°
2026-05-08 04:43 -12.07266 -77.08959 2161 ft 214 kts 153°
2026-05-08 04:43 -12.08682 -77.08251 2494 ft 238 kts 153°
2026-05-08 04:44 -12.10247 -77.07471 3010 ft 257 kts 154°
2026-05-08 04:44 -12.11857 -77.06671 3797 ft 263 kts 154°
2026-05-08 04:44 -12.13516 -77.05848 4647 ft 266 kts 154°
2026-05-08 04:44 -12.14199 -77.05510 4969 ft 267 kts 154°
2026-05-08 04:45 -12.15889 -77.04674 5690 ft 273 kts 154°
2026-05-08 04:45 -12.17611 -77.03823 6405 ft 275 kts 154°
2026-05-08 04:45 -12.19346 -77.02967 7162 ft 278 kts 154°
2026-05-08 04:45 -12.21096 -77.02102 7905 ft 281 kts 154°
2026-05-08 04:46 -12.22845 -77.01175 8624 ft 285 kts 147°
2026-05-08 04:46 -12.24356 -76.99845 8934 ft 289 kts 129°
2026-05-08 04:46 -12.25411 -76.98082 9610 ft 292 kts 116°
2026-05-08 04:46 -12.26301 -76.96199 10279 ft 296 kts 116°
2026-05-08 04:47 -12.27210 -76.94308 10966 ft 298 kts 116°
2026-05-08 04:47 -12.28119 -76.92427 11618 ft 300 kts 117°
2026-05-08 04:47 -12.29051 -76.90506 12254 ft 303 kts 116°
2026-05-08 04:47 -12.29995 -76.88557 12908 ft 306 kts 116°
2026-05-08 04:48 -12.30946 -76.86592 13543 ft 309 kts 116°
2026-05-08 04:48 -12.31988 -76.84635 13906 ft 322 kts 127°
2026-05-08 04:48 -12.33521 -76.82879 14030 ft 341 kts 133°
2026-05-08 04:48 -12.35199 -76.81085 14269 ft 354 kts 134°
2026-05-08 04:49 -12.36928 -76.79256 14723 ft 358 kts 134°
2026-05-08 04:49 -12.38670 -76.77413 15219 ft 362 kts 134°
2026-05-08 04:49 -12.40402 -76.75575 15728 ft 365 kts 133°
2026-05-08 04:49 -12.42166 -76.73699 16236 ft 368 kts 133°
2026-05-08 04:50 -12.43949 -76.71799 16749 ft 371 kts 133°
2026-05-08 04:50 -12.45742 -76.69885 17251 ft 374 kts 133°
2026-05-08 04:50 -12.47546 -76.67959 17769 ft 377 kts 133°
2026-05-08 04:50 -12.49366 -76.66014 18275 ft 379 kts 133°
2026-05-08 04:51 -12.51202 -76.64054 18704 ft 382 kts 133°
2026-05-08 04:51 -12.53049 -76.62080 19125 ft 385 kts 133°
2026-05-08 04:51 -12.54911 -76.60090 19544 ft 388 kts 133°
2026-05-08 04:51 -12.56787 -76.58085 19962 ft 391 kts 133°
2026-05-08 04:52 -12.58676 -76.56070 20378 ft 393 kts 133°
2026-05-08 04:52 -12.60576 -76.54042 20800 ft 396 kts 133°
2026-05-08 04:52 -12.62464 -76.52023 21200 ft 399 kts 133°
2026-05-08 04:52 -12.64391 -76.49957 21598 ft 401 kts 133°
2026-05-08 04:53 -12.66330 -76.47879 21994 ft 404 kts 133°
2026-05-08 04:53 -12.68281 -76.45790 22395 ft 407 kts 134°
2026-05-08 04:53 -12.70248 -76.43682 22806 ft 410 kts 133°
2026-05-08 04:53 -12.72203 -76.41583 23198 ft 412 kts 134°
2026-05-08 04:54 -12.74198 -76.39444 23574 ft 415 kts 134°
2026-05-08 04:54 -12.76206 -76.37294 23893 ft 418 kts 134°
2026-05-08 04:54 -12.78223 -76.35134 24189 ft 421 kts 134°
2026-05-08 04:54 -12.80253 -76.32960 24488 ft 424 kts 134°
2026-05-08 04:55 -12.82298 -76.30767 24790 ft 427 kts 133°
2026-05-08 04:55 -12.84354 -76.28561 25097 ft 429 kts 133°
2026-05-08 04:55 -12.86402 -76.26368 25393 ft 432 kts 133°
2026-05-08 04:55 -12.88489 -76.24133 25687 ft 435 kts 133°
2026-05-08 04:56 -12.90596 -76.21876 25975 ft 438 kts 133°
2026-05-08 04:56 -12.92712 -76.19610 26269 ft 441 kts 133°
2026-05-08 04:56 -12.94840 -76.17328 26564 ft 444 kts 133°
2026-05-08 04:56 -12.96983 -76.15029 26841 ft 447 kts 133°
2026-05-08 04:57 -12.99140 -76.12715 27129 ft 450 kts 133°
2026-05-08 04:57 -13.01305 -76.10390 27418 ft 452 kts 133°
2026-05-08 04:57 -13.03488 -76.08045 27695 ft 455 kts 133°
2026-05-08 04:57 -13.05681 -76.05688 27965 ft 458 kts 133°
2026-05-08 04:58 -13.07863 -76.03342 28232 ft 461 kts 133°
2026-05-08 04:58 -13.10080 -76.00956 28497 ft 464 kts 133°
2026-05-08 04:58 -13.12315 -75.98549 28786 ft 466 kts 133°
2026-05-08 04:58 -13.14565 -75.96125 29071 ft 469 kts 133°
2026-05-08 04:59 -13.16823 -75.93691 29319 ft 472 kts 133°
2026-05-08 04:59 -13.19093 -75.91244 29557 ft 475 kts 133°
2026-05-08 04:59 -13.21382 -75.88778 29815 ft 477 kts 133°
2026-05-08 04:59 -13.23681 -75.86305 30043 ft 480 kts 133°
2026-05-08 05:00 -13.25991 -75.83824 30248 ft 482 kts 133°
2026-05-08 05:00 -13.28281 -75.81360 30452 ft 484 kts 133°
2026-05-08 05:00 -13.30605 -75.78853 30654 ft 485 kts 133°
2026-05-08 05:00 -13.32936 -75.76335 30836 ft 488 kts 133°
2026-05-08 05:01 -13.35278 -75.73804 31041 ft 489 kts 133°
2026-05-08 05:01 -13.37625 -75.71264 31242 ft 490 kts 133°
2026-05-08 05:01 -13.39969 -75.68723 31559 ft 489 kts 133°
2026-05-08 05:01 -13.42310 -75.66182 31865 ft 489 kts 133°
2026-05-08 05:02 -13.44657 -75.63631 32164 ft 489 kts 133°
2026-05-08 05:02 -13.46993 -75.61086 32442 ft 489 kts 134°
2026-05-08 05:02 -13.49298 -75.58574 32736 ft 489 kts 134°
2026-05-08 05:02 -13.51633 -75.56031 33032 ft 488 kts 134°
2026-05-08 05:03 -13.53976 -75.53481 33313 ft 489 kts 134°
2026-05-08 05:03 -13.56316 -75.50937 33560 ft 489 kts 134°
2026-05-08 05:03 -13.58624 -75.48429 33854 ft 489 kts 135°
2026-05-08 05:03 -13.60963 -75.45885 34129 ft 488 kts 135°
2026-05-08 05:04 -13.63300 -75.43343 34394 ft 488 kts 135°
2026-05-08 05:04 -13.65636 -75.40800 34660 ft 488 kts 135°
2026-05-08 05:04 -13.67969 -75.38259 34923 ft 487 kts 135°
2026-05-08 05:04 -13.70292 -75.35728 35190 ft 486 kts 135°
2026-05-08 05:05 -13.72617 -75.33195 35420 ft 485 kts 135°
2026-05-08 05:05 -13.74908 -75.30696 35629 ft 485 kts 134°
2026-05-08 05:05 -13.77225 -75.28168 35880 ft 484 kts 134°
2026-05-08 05:05 -13.79539 -75.25643 36100 ft 484 kts 134°
2026-05-08 05:06 -13.81850 -75.23124 36351 ft 483 kts 135°
2026-05-08 05:06 -13.84163 -75.20605 36587 ft 482 kts 134°
2026-05-08 05:06 -13.86438 -75.18121 36807 ft 482 kts 134°
2026-05-08 05:06 -13.88743 -75.15600 37008 ft 481 kts 134°
2026-05-08 05:07 -13.93326 -75.10584 37093 ft 479 kts 134°
2026-05-08 05:07 -13.97906 -75.05588 37089 ft 479 kts 135°
2026-05-08 05:08 -14.02456 -75.00616 37092 ft 479 kts 135°
2026-05-08 05:08 -14.07031 -74.95606 37092 ft 479 kts 135°
2026-05-08 05:09 -14.11601 -74.90600 37094 ft 479 kts 135°
2026-05-08 05:09 -14.16160 -74.85590 37090 ft 479 kts 134°
2026-05-08 05:10 -14.22986 -74.78096 37097 ft 480 kts 135°
2026-05-08 05:11 -14.27558 -74.73079 37099 ft 480 kts 135°
2026-05-08 05:11 -14.32138 -74.68047 37101 ft 480 kts 135°
2026-05-08 05:12 -14.36703 -74.63025 37114 ft 480 kts 135°
2026-05-08 05:12 -14.41271 -74.57994 37109 ft 479 kts 135°
2026-05-08 05:13 -14.45820 -74.52991 37092 ft 478 kts 136°
2026-05-08 05:13 -14.50374 -74.47980 37083 ft 478 kts 136°
2026-05-08 05:14 -14.54948 -74.42963 37088 ft 480 kts 136°
2026-05-08 05:14 -14.59528 -74.37920 37090 ft 481 kts 135°
2026-05-08 05:15 -14.64105 -74.32862 37094 ft 482 kts 135°
2026-05-08 05:15 -14.68655 -74.27822 37092 ft 483 kts 135°
2026-05-08 05:16 -14.73244 -74.22749 37090 ft 483 kts 135°
2026-05-08 05:16 -14.77828 -74.17676 37089 ft 483 kts 135°
2026-05-08 05:17 -14.82038 -74.12229 37106 ft 487 kts 126°
2026-05-08 05:17 -14.85913 -74.06472 37111 ft 487 kts 126°
2026-05-08 05:18 -14.89803 -74.00718 37117 ft 487 kts 126°
2026-05-08 05:18 -14.93656 -73.95011 37123 ft 488 kts 126°
2026-05-08 05:19 -14.97536 -73.89252 37133 ft 488 kts 126°
2026-05-08 05:19 -15.01406 -73.83482 37115 ft 488 kts 126°
2026-05-08 05:20 -15.05285 -73.77707 37137 ft 488 kts 126°
2026-05-08 05:20 -15.09182 -73.71928 37144 ft 489 kts 126°
2026-05-08 05:21 -15.13046 -73.66190 37145 ft 489 kts 126°
2026-05-08 05:21 -15.16925 -73.60394 37132 ft 489 kts 126°
2026-05-08 05:22 -15.20797 -73.54604 37120 ft 488 kts 126°
2026-05-08 05:22 -15.24021 -73.49781 37125 ft 490 kts 126°
2026-05-08 05:23 -15.27904 -73.43971 37138 ft 490 kts 126°
2026-05-08 05:23 -15.31788 -73.38164 37115 ft 489 kts 126°
2026-05-08 05:24 -15.35672 -73.32361 37113 ft 491 kts 126°
2026-05-08 05:24 -15.39541 -73.26569 37111 ft 491 kts 126°
2026-05-08 05:25 -15.43434 -73.20728 37116 ft 492 kts 126°
2026-05-08 05:25 -15.45379 -73.17809 36899 ft 492 kts 126°
2026-05-08 05:25 -15.47329 -73.14891 36642 ft 491 kts 126°
2026-05-08 05:25 -15.49277 -73.11974 36128 ft 489 kts 126°
2026-05-08 05:26 -15.51207 -73.09078 35541 ft 487 kts 125°
2026-05-08 05:26 -15.53103 -73.06227 34980 ft 485 kts 126°
2026-05-08 05:26 -15.55022 -73.03337 34385 ft 485 kts 126°
2026-05-08 05:26 -15.56945 -73.00447 33769 ft 484 kts 126°
2026-05-08 05:27 -15.58851 -72.97580 33185 ft 482 kts 126°
2026-05-08 05:27 -15.60746 -72.94728 32610 ft 478 kts 126°
2026-05-08 05:27 -15.62630 -72.91896 32035 ft 471 kts 126°
2026-05-08 05:27 -15.64476 -72.89120 31489 ft 462 kts 127°
2026-05-08 05:28 -15.66283 -72.86400 30943 ft 454 kts 127°
2026-05-08 05:28 -15.68061 -72.83722 30425 ft 445 kts 127°
2026-05-08 05:28 -15.69805 -72.81094 29877 ft 437 kts 127°
2026-05-08 05:28 -15.71491 -72.78550 29382 ft 429 kts 127°
2026-05-08 05:29 -15.73174 -72.76006 28908 ft 425 kts 127°
2026-05-08 05:29 -15.74843 -72.73487 28440 ft 421 kts 127°
2026-05-08 05:29 -15.76500 -72.70989 27972 ft 417 kts 127°
2026-05-08 05:29 -15.78137 -72.68516 27504 ft 413 kts 127°
2026-05-08 05:30 -15.79763 -72.66058 27044 ft 410 kts 127°
2026-05-08 05:30 -15.81375 -72.63623 26562 ft 407 kts 127°
2026-05-08 05:30 -15.82979 -72.61204 26111 ft 405 kts 127°
2026-05-08 05:30 -15.84571 -72.58798 25621 ft 404 kts 127°
2026-05-08 05:31 -15.86160 -72.56390 25144 ft 403 kts 127°
2026-05-08 05:31 -15.87720 -72.54028 24671 ft 400 kts 127°
2026-05-08 05:31 -15.89298 -72.51641 24214 ft 399 kts 127°
2026-05-08 05:31 -15.90868 -72.49261 23747 ft 398 kts 126°
2026-05-08 05:32 -15.92428 -72.46898 23226 ft 396 kts 126°
2026-05-08 05:32 -15.93985 -72.44540 22762 ft 393 kts 126°
2026-05-08 05:32 -15.95527 -72.42204 22307 ft 390 kts 126°
2026-05-08 05:32 -15.97061 -72.39881 21856 ft 388 kts 126°
2026-05-08 05:33 -15.98565 -72.37607 21423 ft 385 kts 126°
2026-05-08 05:33 -16.00079 -72.35318 20973 ft 383 kts 126°
2026-05-08 05:33 -16.01585 -72.33041 20549 ft 381 kts 126°
2026-05-08 05:33 -16.03084 -72.30775 20124 ft 379 kts 126°
2026-05-08 05:34 -16.04575 -72.28516 19687 ft 378 kts 125°
2026-05-08 05:34 -16.06055 -72.26269 19329 ft 374 kts 125°
2026-05-08 05:34 -16.07521 -72.24040 18909 ft 371 kts 125°
2026-05-08 05:34 -16.08970 -72.21833 18315 ft 370 kts 125°
2026-05-08 05:35 -16.10447 -72.19591 17562 ft 373 kts 125°
2026-05-08 05:35 -16.11882 -72.17415 17434 ft 355 kts 125°
2026-05-08 05:35 -16.13247 -72.15347 17265 ft 339 kts 125°
2026-05-08 05:35 -16.14571 -72.13344 16794 ft 335 kts 125°
2026-05-08 05:36 -16.15885 -72.11354 16290 ft 332 kts 125°
2026-05-08 05:36 -16.17171 -72.09407 15851 ft 327 kts 125°
2026-05-08 05:36 -16.18453 -72.07465 15440 ft 323 kts 125°
2026-05-08 05:36 -16.19712 -72.05559 15084 ft 316 kts 125°
2026-05-08 05:37 -16.20950 -72.03682 14752 ft 312 kts 125°
2026-05-08 05:37 -16.22171 -72.01827 14406 ft 309 kts 125°
2026-05-08 05:37 -16.23381 -71.99986 14071 ft 307 kts 125°
2026-05-08 05:37 -16.24581 -71.98164 13732 ft 302 kts 125°
2026-05-08 05:38 -16.25759 -71.96375 13380 ft 296 kts 125°
2026-05-08 05:38 -16.26911 -71.94626 13053 ft 289 kts 125°
2026-05-08 05:38 -16.28023 -71.92936 12767 ft 283 kts 124°
2026-05-08 05:38 -16.29124 -71.91264 12474 ft 277 kts 124°
2026-05-08 05:39 -16.30204 -71.89620 12185 ft 273 kts 124°
2026-05-08 05:39 -16.31278 -71.87985 11897 ft 272 kts 124°
2026-05-08 05:39 -16.32211 -71.86292 11598 ft 266 kts 111°
2026-05-08 05:39 -16.32683 -71.84453 11313 ft 261 kts 97°
2026-05-08 05:40 -16.32781 -71.82585 11027 ft 256 kts 92°
2026-05-08 05:40 -16.32855 -71.80761 10796 ft 248 kts 92°
2026-05-08 05:40 -16.32930 -71.79005 10743 ft 238 kts 92°
2026-05-08 05:40 -16.33003 -71.77325 10669 ft 233 kts 92°
2026-05-08 05:41 -16.33070 -71.75644 10591 ft 232 kts 92°
2026-05-08 05:41 -16.33151 -71.73966 10508 ft 232 kts 92°
2026-05-08 05:41 -16.33241 -71.72293 10423 ft 232 kts 92°
2026-05-08 05:41 -16.33331 -71.70631 10366 ft 225 kts 92°
2026-05-08 05:42 -16.33416 -71.69060 10273 ft 211 kts 92°
2026-05-08 05:42 -16.33497 -71.67562 10074 ft 204 kts 92°
2026-05-08 05:42 -16.33575 -71.66102 9902 ft 200 kts 92°
2026-05-08 05:42 -16.33652 -71.64684 9727 ft 190 kts 91°
2026-05-08 05:43 -16.33722 -71.63380 9456 ft 176 kts 90°
2026-05-08 05:43 -16.33789 -71.62142 9112 ft 169 kts 91°
2026-05-08 05:43 -16.33853 -71.60930 8820 ft 167 kts 92°
2026-05-08 05:43 -16.33925 -71.59723 8553 ft 167 kts 94°
2026-05-08 05:44 -16.33986 -71.58520 8321 ft 166 kts 92°
2026-05-08 05:44 -16.34040 -71.57405 8351 ft 132 kts 93°
2026-05-08 05:44 -16.34081 -71.56632 8395 ft 82 kts 93°
2026-05-08 05:44 -16.34106 -71.56158 8411 ft 57 kts 93°
2026-05-08 05:45 -16.34120 -71.55866 8413 ft 30 kts 92°
2026-05-08 05:45 -16.34156 -71.55724 8413 ft 13 kts 165°
2026-05-08 05:45 -16.34187 -71.55755 8413 ft 12 kts 233°
2026-05-08 05:45 -16.34238 -71.55850 8403 ft 19 kts 245°
2026-05-08 05:46 -16.34307 -71.55958 8390 ft 18 kts 231°
2026-05-08 05:46 -16.34369 -71.56052 8382 ft 16 kts 242°
2026-05-08 05:46 -16.34380 -71.56173 8373 ft 16 kts 274°
2026-05-08 05:46 -16.34373 -71.56289 8361 ft 17 kts 273°
2026-05-08 05:47 -16.34366 -71.56423 8352 ft 18 kts 273°
2026-05-08 05:47 -16.34357 -71.56544 8345 ft 15 kts 274°
2026-05-08 05:47 -16.34355 -71.56652 8345 ft 15 kts 270°
2026-05-08 05:47 -16.34349 -71.56725 8346 ft 3 kts 275°
2026-05-08 05:48 -16.34348 -71.56740 8344 ft 3 kts 275°
2026-05-08 05:48 -16.34356 -71.56756 8349 ft 3 kts 223°
2026-05-08 05:48 -16.34371 -71.56768 8344 ft 2 kts 218°
2026-05-08 05:48 -16.34382 -71.56777 8347 ft 2 kts 219°
2026-05-08 05:49 -16.34387 -71.56782 8345 ft 1 kts 219°
2026-05-08 05:49 -16.34389 -71.56783 8345 ft 0 kts 219°